{"data":{"norad_id":40136,"epoch":"2026-05-25T04:21:37.902816Z","epoch_age_seconds":59222,"freshness":"FRESH","line1":"1 40136U 14051A   26145.18168869  .00000223  00000+0  10321-3 0  9996","line2":"2 40136  98.7061 146.9596 0019758 239.2671 120.6565 14.30266979611715","mean_motion":14.30266979,"eccentricity":0.0019758,"inclination_deg":98.7061,"raan_deg":146.9596,"arg_perigee_deg":239.2671,"mean_anomaly_deg":120.6565,"bstar":0.00010321,"rev_number":61171,"period_min":100.68050379005,"perigee_km":776.6741001141,"apogee_km":805.00302394501,"semimajor_km":7168.9755620296,"source":"CELESTRAK","updated_at":"2026-05-25T13:37:55.473742Z"}}